Showing default

SHIYAN 32-01, 66376

Orbit data source: Space-Track

SHIYAN 32-01, 66376 is a payload satellite owned by CASC (CN) in LEO that was launched on Sat, 08 Nov 2025 UTC via a CHANG ZHENG 11 launch vehicle from the Yellow Sea Launch Area, China (YSLA). Payload-class satellites include a variety of spacecraft equipped with specific instruments for various scientific and technological missions. These include communications satellites like Starlink; space stations such as the ISS; scientific satellites like the Hubble; Earth observation satellites from companies like Planet Labs, Umbra, and HawkEye 360; GPS; miniature CubeSats for education and research; and military/defense satellites.

Loading next visibility...
Identifier
66376, 2025-255A
Orbit
LEO
Country
Flag of CNCN / PRC
Related business
Manufacturer
SISE?
Mission
Non-operational Defense Technology
Bus & Motor
Unknown
Mass
~50 kg wet, ~50 kg dry
Launch date (UTC)
2025-11-08 (7 months ago)
Launch vehicle
CHANG ZHENG 11
Launch site
Yellow Sea Launch Area, China (YSLA)
Object type
Payload
Rocket body
Debris
Shape & HBR
Box + 1 Pan, 14.5 m
Radar Cross Section
6.001 m², Medium (>0.1 m² and < 1m²)

Expand to show TLE details & history
Last TLE update: 1 day ago

TLE from 1 day ago
0 SHIYAN 32-01
1 66376U 25255A   26170.74183771  .00018795  00000-0  31611-3 0  9996
2 66376  52.9950 353.6138 0009950 283.9815  76.0087 15.51757185 34615
Epoch: 2026-06-19T17:48Z
TLE epoch observation values (Epoch: 2026-06-19T17:48:14.778Z)
Latitude
0.00005°
Longitude
178.58581°
Altitude
410.859 km
Speed
7.667 km/s
True Right ascension
23h 34m 27s
True Declination
0° 00' 00"
Sunlit
Object was in daylight at epoch
Visualization orbit readout
Latitude
Unknown
Longitude
Unknown
Altitude
Unknown
Speed
Unknown
Apparent Right ascension
Unknown
Apparent Declination
Unknown
Sunlit
N/A
Visualization observer readout
Local Sidereal Time
07:16:46
Azimuth
Unknown
Elevation
Unknown
Doppler factor
Unknown
Orbital elements
Apogee altitude
418.637 km
Perigee altitude
405.125 km
Semi-major axis
6,790.018 km
Eccentricity
0.001
Inclination
52.995°
RAAN
353.6138°
Arg. of periapsis
283.9815°
True anomaly
76.11937°
Mean anomaly
76.0087°
Eccentric anomaly
76.06403°
Mean motion
3.87915 °/min
Orbital period
92.8 mins
BSTAR
0.00031611
Loading maneuver chart data...
Computing Atmospheric mass density...
Loading historical data...
Loading historical data...
Loading historical data...
Loading historical data...
Loading historical data...
Loading historical data...
Loading historical data...
Other satellites on launch #255 in the year 2025 (2025-11-08 UTC)

Documentation

Showing up to 5 results
|